User: anonymous   Login
Location: Melbourne
(37.8170°S, 144.9670°E)
Time: 18:24:28
(UTC+10:00)
Language:

Aureole 2 Rocket - Orbit

View from above orbital plane
View from above orbital plane
View from above satellite
View from above satellite

Ground track
Ground track

The orbit data is extracted from the following two-line orbital elements,

1 07004U 73107B   16272.12214035  .00015297  00000-0  25600-3 0  9995
2 07004  73.9357 269.9485 0197766 207.1343 151.9422 15.32852394196963
Epoch (UTC): 28 September 2016 02:55:52
Eccentricity: 0.0197766
inclination: 73.9357°
perigee height: 332 km
apogee height: 602 km
right ascension of ascending node: 269.9485°
argument of perigee: 207.1343°
revolutions per day: 15.32852394
mean anomaly at epoch: 151.9422°
orbit number at epoch: 19696

The dashed part of the orbit path shows where the satellite is in the earth's shadow,  

DLR